Home   Weather   Cancún   Past weeks

Flag for Mexico Past Weather in Cancún, Quintana Roo, Mexico — Yesterday and Last 2 Weeks

Now
88 °F

Broken clouds.


Feels Like: 102 °F
Forecast: N/A
Wind: 9 mph from Southeast

Location: Cancun International Airport

Current Time: Sep 26, 2016 at 3:52:54 PM

Latest Report: Sep 26, 2016 at 2:45 PM


Visibility: 7 mi

Pressure: 29.90 "Hg

Humidity: 75%

Dew Point: 79 °F

Location of CancúnLocation

Past Weather in Cancún — Graph

°F

Cancún Temperature Yesterday

Maximum temperature yesterday: 88 °F (at 10:45 AM)
Minimum temperature yesterday: 75 °F (at 5:49 PM)
Average temperature yesterday: 80 °F

High & Low Weather Summary for the Past Weeks

 TemperatureHumidityPressure
High90 °F (Sep 18, 11:43 AM)100% (Sep 11, 3:41 PM)30.03 "Hg (Sep 11, 3:41 PM)
Low72 °F (Sep 12, 3:41 AM)59% (Sep 18, 11:43 AM)29.85 "Hg (Sep 12, 4:41 AM)
Average81 °F86%29.95 "Hg
* Reported Sep 11 1:58 PM — Sep 26 1:42 PM, Cancún, Weather by CustomWeather, © 2016

Note: Actual official high and low records may vary slightly from our data, if they occured in-between our weather recording intervals... More about our weather records

Advertising

Cancún Weather History for the Previous 24 Hours

Scroll right to see more
 ConditionsComfort  
Time TempWeatherWind HumidityBarometerVisibility
1:42 PM
Mon, Sep 26
86 °FMostly cloudy.7 mph79%29.92 "Hg7 mi
12:48 PM86 °FMostly cloudy.10 mph75%29.94 "Hg7 mi
11:47 AM86 °FMore clouds than sun.7 mph79%29.95 "Hg7 mi
9:44 AM82 °FOvercast.6 mph89%29.96 "Hg7 mi
8:40 AM82 °FOvercast.5 mph89%29.96 "Hg7 mi
7:43 AM79 °FOvercast.No wind94%29.93 "Hg7 mi
6:48 AM79 °FMostly cloudy.3 mph94%29.90 "Hg7 mi
5:40 AM79 °FOvercast.7 mph89%29.89 "Hg6 mi
3:46 AM77 °FOvercast.5 mph89%29.91 "Hg6 mi
2:40 AM75 °FMostly cloudy.8 mph89%29.92 "Hg6 mi
1:43 AM79 °FMostly cloudy.12 mph94%29.95 "Hg6 mi
12:44 AM75 °FLight rain. Mostly cloudy.No wind94%29.96 "Hg6 mi
11:42 PM
Sun, Sep 25
75 °FMostly cloudy.2 mph94%29.97 "Hg6 mi
9:45 PM75 °FLight rain. Mostly cloudy.3 mph94%29.98 "Hg6 mi
8:48 PM77 °FLight rain. Mostly cloudy.8 mph94%29.97 "Hg6 mi
7:47 PM75 °FThunderstorms. Mostly cloudy.No wind94%29.95 "Hg7 mi
5:49 PM75 °FLight rain. Mostly cloudy.13 mph94%29.90 "Hg5 mi
4:46 PM84 °FCloudy.6 mph84%29.90 "Hg7 mi
Weather by CustomWeather, © 2016

See weather overviewHow to use our weather pages